Left ArrowRight Arrow

44.89941, -97.11507

Hourly Observations for June 25, 2024

Temp ( °F °C ) Dew Point ( °F °C ) Humidity (%) Winds ( mph kmh ) Pressure ( in mb ) Visibility ( mi km ) Precip ( " mm )
12:53 am 00:53 Clear 73 22.8 71 21.7 94 94 NNW 8 13 29.66 1005 10 16 0.00 0.00
1:53 am 01:53 Clear 74 23.3 71 21.7 91 91 W 7 11 29.70 1006 10 16 0.00 0.00
2:53 am 02:53 Clear 74 23.3 70 21.1 87 87 WNW 10 17 29.73 1007 10 16 0.00 0.00
3:53 am 03:53 Clear 71 21.7 66 18.9 84 84 NNW 8 13 29.75 1007 10 16 0.00 0.00
4:53 am 04:53 Clear 68 20 65 18.3 90 90 NNE 12 19 29.73 1007 10 16 0.00 0.00
5:53 am 05:53 Sunny 69 20.6 55 12.8 61 61 NNE 12 19 29.70 1006 10 16 0.00 0.00
6:53 am 06:53 Sunny 70 21.1 50 10 49 49 NE 6 9 29.75 1007 10 16 0.00 0.00
7:53 am 07:53 Mostly Sunny 68 20 55 12.8 63 63 SSW 5 7 29.83 1010 10 16 0.00 0.00
8:53 am 08:53 Mostly Cloudy with Light Rain 67 19.4 59 15 76 76 NNE 3 6 29.80 1009 10 16 0.01 0.13
9:53 am 09:53 Mostly Sunny 69 20.6 57 13.9 65 65 NE 8 13 29.77 1008 10 16 0.01 0.13
10:53 am 10:53 Mostly Sunny 73 22.8 55 12.8 53 53 Calm 29.78 1009 10 16 0.01 0.13
11:53 am 11:53 Sunny with Light Rain 71 21.7 60 15.6 68 68 SSW 6 9 29.82 1010 10 16 0.01 0.13
12:53 pm 12:53 Partly Cloudy 76 24.4 60 15.6 58 58 SW 8 13 29.85 1011 10 16 0.01 0.13
1:53 pm 13:53 Sunny 81 27.2 58 14.4 45 45 S 8 13 29.83 1010 10 16 0.00 0.00
2:53 pm 14:53 Mostly Sunny 83 28.3 54 12.2 37 37 SW 7 11 29.84 1011 10 16 0.00 0.00
3:53 pm 15:53 Mostly Cloudy 83 28.3 49 9.4 31 31 Calm 29.85 1011 10 16 0.00 0.00
4:53 pm 16:53 Partly Cloudy 84 28.9 56 13.3 38 38 NNW 7 11 29.85 1011 10 16 0.00 0.00
5:53 pm 17:53 Mostly Cloudy 81 27.2 53 11.7 38 38 NW 5 7 29.85 1011 10 16 0.00 0.00
6:53 pm 18:53 Mostly Cloudy 79 26.1 60 15.6 52 52 NNW 3 6 29.84 1011 10 16 0.00 0.00
7:53 pm 19:53 Mostly Sunny 79 26.1 59 15 50 50 NNW 6 9 29.84 1011 10 16 0.01 0.13
8:53 pm 20:53 Sunny 74 23.3 59 15 60 60 W 6 9 29.84 1011 10 16 0.00 0.00
9:53 pm 21:53 Clear 71 21.7 58 14.4 63 63 Calm 29.86 1011 10 16 0.00 0.00
10:53 pm 22:53 Clear 68 20 59 15 73 73 Calm 29.88 1012 10 16 0.00 0.00
11:53 pm 23:53 Clear 64 17.8 58 14.4 80 80 NE 7 11 29.90 1012 10 16 0.00 0.00

Powered by Vaisala Xweather